Terminal Aerodrome Forecast
Issued by NWS

Home | Current Version | Previous Version | Text Only | Print | Product List | Glossary On
Versions: 1 2 3 4 5 6 7 8 9 10 11 12 13 14 15 16 17 18 19 20 21 22 23 24 25 26 27 28 29 30
000
FTPA31 PHFO 171123
TAFMDY
TAF
PMDY 171123Z 1712/1812 03018G25KT P6SM SCT020 BKN035 OVC060
     FM171700 05020G30KT P6SM SCT025 BKN035 BKN060=

USA.gov is the U.S. government's official web portal to all federal, state and local government web resources and services.